{"data":{"norad_id":62145,"epoch":"2026-05-24T23:04:17.095872Z","epoch_age_seconds":72225,"freshness":"FRESH","line1":"1 62145U 24224G   26144.96130898  .00010418  00000+0  38761-3 0  9994","line2":"2 62145  43.0030  87.4583 0001464 271.9223  88.1461 15.27576748 84143","mean_motion":15.27576748,"eccentricity":0.0001464,"inclination_deg":43.003,"raan_deg":87.4583,"arg_perigee_deg":271.9223,"mean_anomaly_deg":88.1461,"bstar":0.00038761,"rev_number":8414,"period_min":94.266949394545,"perigee_km":482.05435464477,"apogee_km":484.06331278489,"semimajor_km":6861.1958337148,"source":"CELESTRAK","updated_at":"2026-05-25T13:38:19.569948Z"}}